| time (UTC) | temp F | wind direction | speed knots | gust knots | rain 1hr in | rain 24hr in | rain mn in | humidity % | barometer mb |
| 20260504050016 | 41 | 0.0 | 0.0 | 0.00 | 0.00 | 0.00 | 81 | 1016.6 | |
| 20260504045016 | 41 | 0.0 | 0.0 | 0.00 | 0.00 | 0.00 | 80 | 1016.5 | |
| 20260504044017 | 41 | 0.0 | 0.0 | 0.00 | 0.00 | 0.00 | 79 | 1016.5 | |
| 20260504043016 | 42 | 0.0 | 0.0 | 0.00 | 0.00 | 0.00 | 79 | 1016.4 | |
| 20260504042016 | 42 | 0.0 | 0.0 | 0.00 | 0.00 | 0.00 | 79 | 1016.3 | |
| 20260504041036 | 42 | 0.0 | 0.0 | 0.00 | 0.00 | 0.00 | 79 | 1016.3 | |
| 20260504040016 | 42 | 0.0 | 0.0 | 0.00 | 0.00 | 0.00 | 79 | 1016.2 | |
| 20260504035016 | 42 | 0.0 | 0.0 | 0.00 | 0.00 | 0.00 | 77 | 1016.0 | |
| 20260504034016 | 42 | 0.0 | 0.0 | 0.00 | 0.00 | 0.00 | 77 | 1016.1 | |
| 20260504033016 | 42 | 0.0 | 0.0 | 0.00 | 0.00 | 0.00 | 76 | 1015.9 | |
| 20260504032016 | 42 | 0.0 | 0.0 | 0.00 | 0.00 | 0.00 | 77 | 1015.9 | |
| 20260504031016 | 43 | 0.0 | 0.0 | 0.00 | 0.00 | 0.00 | 76 | 1015.9 | |
| 20260504030016 | 43 | 0.0 | 0.0 | 0.00 | 0.00 | 0.00 | 75 | 1016.0 | |
| 20260504025016 | 43 | 0.0 | 0.0 | 0.00 | 0.00 | 0.00 | 74 | 1016.0 | |
| 20260504024016 | 43 | 0.0 | 0.0 | 0.00 | 0.00 | 0.00 | 72 | 1016.1 | |
| 20260504023016 | 44 | 0.0 | 0.0 | 0.00 | 0.00 | 0.00 | 72 | 1016.0 | |
| 20260504022016 | 45 | 0.0 | 0.0 | 0.00 | 0.00 | 0.00 | 69 | 1015.9 | |
| 20260504021016 | 45 | 0.0 | 0.0 | 0.00 | 0.00 | 0.00 | 68 | 1015.8 | |
| 20260504020016 | 46 | 0.0 | 0.0 | 0.00 | 0.00 | 0.00 | 66 | 1015.6 | |
| 20260504015016 | 46 | 0.0 | 0.0 | 0.00 | 0.00 | 0.00 | 66 | 1015.7 | |
| 20260504014036 | 47 | 0.0 | 0.0 | 0.00 | 0.00 | 0.00 | 64 | 1015.5 | |
| 20260504013016 | 48 | 0.0 | 0.0 | 0.00 | 0.00 | 0.00 | 62 | 1015.1 | |
| 20260504012017 | 49 | 0.0 | 0.0 | 0.00 | 0.00 | 0.00 | 62 | 1015.0 | |
| 20260504011016 | 50 | 0.0 | 0.0 | 0.00 | 0.00 | 0.00 | 60 | 1015.1 | |
| 20260504010016 | 51 | 0.0 | 0.0 | 0.00 | 0.00 | 0.00 | 57 | 1014.7 | |
| 20260504005016 | 52 | 0.0 | 0.0 | 0.00 | 0.00 | 0.00 | 54 | 1014.7 | |
| 20260504004036 | 53 | 0.0 | 0.0 | 0.00 | 0.00 | 0.00 | 52 | 1014.7 | |
| 20260504003017 | 54 | 0.0 | 0.0 | 0.00 | 0.00 | 0.00 | 49 | 1014.4 | |
| 20260504002036 | 55 | 0.0 | 0.9 | 0.00 | 0.00 | 0.00 | 45 | 1014.3 | |
| 20260504001036 | 56 | 0.0 | 0.0 | 0.00 | 0.00 | 0.00 | 43 | 1014.3 | |
| 20260504000016 | 57 | 0.0 | 0.0 | 0.00 | 0.00 | 0.00 | 41 | 1014.3 | |
| 20260503235016 | 58 | 0.0 | 0.0 | 0.00 | 0.00 | 0.00 | 37 | 1014.2 | |
| 20260503234036 | 59 | 0.0 | 0.0 | 0.00 | 0.00 | 0.00 | 34 | 1014.2 | |
| 20260503233036 | 60 | 0.0 | 0.0 | 0.00 | 0.00 | 0.00 | 34 | 1014.2 | |
| 20260503232016 | 61 | 0.0 | 0.9 | 0.00 | 0.00 | 0.00 | 33 | 1014.4 | |
| 20260503231016 | 62 | 0.0 | 0.9 | 0.00 | 0.00 | 0.00 | 31 | 1014.4 | |
| 20260503230036 | 62 | 0.0 | 0.0 | 0.00 | 0.00 | 0.00 | 29 | 1014.5 | |
| 20260503225016 | 62 | 0.0 | 0.0 | 0.00 | 0.00 | 0.00 | 31 | 1014.5 | |
| 20260503224016 | 62 | 0.0 | 0.0 | 0.00 | 0.00 | 0.00 | 28 | 1014.6 | |
| 20260503223016 | 63 | 270 | 1.7 | 6.1 | 0.00 | 0.00 | 0.00 | 28 | 1014.8 |
| 20260503222016 | 63 | 0.0 | 0.9 | 0.00 | 0.00 | 0.00 | 28 | 1014.7 | |
| 20260503221036 | 63 | 0.0 | 0.0 | 0.00 | 0.00 | 0.00 | 29 | 1014.8 | |
| 20260503220016 | 62 | 0.0 | 0.9 | 0.00 | 0.00 | 0.00 | 30 | 1014.8 | |
| 20260503215016 | 63 | 0.0 | 1.7 | 0.00 | 0.00 | 0.00 | 27 | 1014.8 | |
| 20260503214016 | 64 | 0.0 | 2.6 | 0.00 | 0.00 | 0.00 | 26 | 1015.0 | |
| 20260503213016 | 63 | 0.0 | 1.7 | 0.00 | 0.00 | 0.00 | 29 | 1015.2 | |
| 20260503212015 | 63 | 270 | 1.7 | 4.3 | 0.00 | 0.00 | 0.00 | 27 | 1015.2 |
| 20260503211016 | 63 | 270 | 0.9 | 2.6 | 0.00 | 0.00 | 0.00 | 30 | 1015.1 |
| 20260503210016 | 63 | 0.0 | 1.7 | 0.00 | 0.00 | 0.00 | 31 | 1015.4 | |
| 20260503205016 | 63 | 0.0 | 0.9 | 0.00 | 0.00 | 0.00 | 29 | 1015.4 | |
| 20260503204015 | 62 | 0.0 | 1.7 | 0.00 | 0.00 | 0.00 | 28 | 1015.5 | |
| 20260503203016 | 62 | 0.0 | 0.9 | 0.00 | 0.00 | 0.00 | 29 | 1015.5 | |
| 20260503202036 | 62 | 248 | 0.9 | 1.7 | 0.00 | 0.00 | 0.00 | 28 | 1015.9 |
| 20260503201016 | 62 | 0.0 | 0.0 | 0.00 | 0.00 | 0.00 | 30 | 1016.0 | |
| 20260503200016 | 61 | 0 | 2.6 | 3.5 | 0.00 | 0.00 | 0.00 | 30 | 1016.0 |
| 20260503195016 | 61 | 248 | 0.9 | 5.2 | 0.00 | 0.00 | 0.00 | 30 | 1016.3 |
| 20260503194016 | 61 | 0.0 | 0.9 | 0.00 | 0.00 | 0.00 | 31 | 1016.4 | |
| 20260503193036 | 61 | 248 | 0.9 | 2.6 | 0.00 | 0.00 | 0.00 | 30 | 1016.6 |
| 20260503192015 | 60 | 225 | 0.9 | 3.5 | 0.00 | 0.00 | 0.00 | 32 | 1016.8 |
| 20260503191016 | 60 | 270 | 1.7 | 3.5 | 0.00 | 0.00 | 0.00 | 32 | 1017.0 |
| 20260503190016 | 60 | 135 | 2.6 | 6.1 | 0.00 | 0.00 | 0.00 | 31 | 1017.1 |
| 20260503185016 | 60 | 248 | 1.7 | 4.3 | 0.00 | 0.00 | 0.00 | 32 | 1017.3 |
| 20260503184016 | 59 | 0.0 | 0.9 | 0.00 | 0.00 | 0.00 | 32 | 1017.3 | |
| 20260503183015 | 59 | 180 | 0.9 | 4.3 | 0.00 | 0.00 | 0.00 | 35 | 1017.4 |
| 20260503182036 | 59 | 203 | 1.7 | 4.3 | 0.00 | 0.00 | 0.00 | 36 | 1017.7 |
| 20260503181015 | 58 | 0.0 | 0.9 | 0.00 | 0.00 | 0.00 | 38 | 1017.8 | |
| 20260503180015 | 58 | 0.0 | 0.9 | 0.00 | 0.00 | 0.00 | 35 | 1017.8 | |
| 20260503175015 | 58 | 158 | 1.7 | 4.3 | 0.00 | 0.00 | 0.00 | 35 | 1018.0 |
| 20260503174015 | 57 | 248 | 0.9 | 3.5 | 0.00 | 0.00 | 0.00 | 39 | 1018.1 |
| 20260503173015 | 57 | 315 | 2.6 | 4.3 | 0.00 | 0.00 | 0.00 | 37 | 1018.1 |
| 20260503172015 | 56 | 270 | 2.6 | 6.1 | 0.00 | 0.00 | 0.00 | 37 | 1018.4 |
| 20260503171015 | 56 | 270 | 0.9 | 4.3 | 0.00 | 0.00 | 0.00 | 41 | 1018.5 |
| 20260503131017 | 43 | 0.0 | 0.0 | 0.00 | 0.00 | 0.00 | 61 | 1019.6 | |
| 20260503081016 | 37 | 0.0 | 0.0 | 0.00 | 0.00 | 0.00 | 84 | 1016.1 |